Location: Cima della Lombarda
(44.2167°N, 7.1667°E)
Time: 02:00:15
(UTC+00:00)

Daily predictions for brighter satellites

Satellite Brightness Start Highest point End
(mag) Time Altitude Azimuth Time Altitude Azimuth Time Altitude Azimuth
Cosmos 1908 4.4 00:01:13 10° NNW 00:03:29 36° NNW 00:03:29 36° NNW
Cosmos 1441 Rocket 4.1 00:02:36 10° N 00:05:10 43° N 00:05:10 43° N
Cosmos 1933 Rocket 4.4 00:03:38 10° NNW 00:07:05 39° WNW 00:07:05 39° WNW
Cosmos 1707 4.0 00:08:39 33° NW 00:08:39 33° NW 00:11:13 10° N
Resurs 1-4 Rocket 4.3 00:05:50 10° ENE 00:08:29 14° E 00:10:24 12° ESE
Cosmos 724 4.3 00:08:27 58° SSE 00:09:08 63° ESE 00:14:55 10° NE
Meteor 1-15 Rocket 4.1 00:04:06 10° N 00:09:48 84° ENE 00:10:46 63° SSE
SL-08 ROCKET BODY 4.5 00:08:51 56° SW 00:10:07 72° W 00:16:20 10° N
Cosmos 1470 4.3 00:07:26 10° NNW 00:09:34 26° NW 00:09:34 26° NW
Meteor 1-12 Rocket 4.5 00:05:31 10° N 00:11:23 69° ENE 00:12:56 49° SE
USA 59 Rocket 1.8 00:07:29 10° WNW 00:09:31 23° W 00:09:31 23° W
Cosmos 1697 Rocket 2.5 00:06:27 10° NNW 00:12:06 86° WSW 00:12:59 65° SSE
COSMOS 2406 4.3 00:12:11 30° ESE 00:13:04 32° ESE 00:18:07 10° NE
Cosmos 1862 Rocket 4.3 00:16:00 42° E 00:16:00 42° E 00:20:04 10° NNE
Cosmos 1980 Rocket 2.8 00:12:08 10° NNW 00:17:43 53° ENE 00:20:33 28° ESE
Cosmos 1758 3.8 00:15:54 10° N 00:19:14 53° NE 00:19:14 53° NE
Cosmos 2266 Rocket 4.3 00:19:48 44° WSW 00:21:10 53° WNW 00:27:15 10° N
Meteor 1-22 Rocket 3.9 00:17:33 10° NNW 00:22:51 77° W 00:23:27 68° SSW
Cosmos 1607 3.9 00:23:16 52° SW 00:25:01 87° NW 00:31:34 10° NE
BREEZE-M DEB (TANK) 4.3 00:25:19 10° WNW 00:27:54 18° NNW 00:29:34 10° NNE
Meteor 1-21 4.5 00:27:29 49° SE 00:28:45 61° E 00:34:23 10° NNE
Helios 1A Rocket 2.9 00:35:43 72° N 00:35:43 72° N 00:39:14 10° NNW
Cosmos 1455 4.3 00:34:48 10° NNE 00:37:10 17° ENE 00:38:09 16° E
Cosmos 2228 Rocket 3.0 00:38:49 75° W 00:38:53 75° W 00:43:22 10° N
Lacrosse 5 rocket 4.2 00:37:46 10° NNW 00:40:40 18° NNE 00:43:30 10° ENE
Cosmos 1707 Rocket 3.4 00:40:48 82° WSW 00:40:54 83° W 00:45:22 10° N
SL-16 R/B 4.4 00:38:58 10° N 00:43:31 24° NE 00:48:02 10° ESE
Cosmos 1140 Rocket 4.4 00:45:22 33° W 00:46:39 38° WNW 00:51:32 10° N
Cosmos 2251 Rocket 3.7 00:46:23 50° WSW 00:47:24 60° WNW 00:52:37 10° NNE
USA 267 4.4 00:44:12 10° NE 00:50:10 39° NNW 00:56:07 10° W
Meteor 2-20 4.4 00:45:02 10° NNW 00:51:09 71° W 00:52:55 48° SSW
Cosmos 2082 Rocket 2.2 00:50:37 52° S 00:52:02 79° ESE 00:57:46 10° NNE
Cosmos 676 Rocket 4.3 00:52:54 46° SSE 00:54:09 59° ESE 00:59:24 10° NNE
Cosmos 1300 3.4 00:50:58 10° NNW 00:53:36 41° NW 00:53:36 41° NW
Cosmos 407 Rocket 4.2 00:58:46 36° W 01:00:09 43° WNW 01:05:11 10° N
Cosmos 1833 Rocket 4.0 00:58:49 22° W 01:01:14 30° NW 01:06:08 10° N
Meteor 2-10 Rocket 4.0 00:56:34 10° NNW 01:02:11 51° W 01:03:23 44° SW
Cosmos 1954 Rocket 4.0 01:01:04 53° S 01:02:21 84° ESE 01:07:43 10° NNE
Cosmos 1190 Rocket 4.0 01:02:08 51° SW 01:03:22 72° WNW 01:08:41 10° NNE
ADEOS II 3.7 00:59:17 10° NE 01:03:42 27° E 01:06:30 17° SE
MOZ.5/SAFIR/RUBIN 5/SL-8 3.7 01:02:50 53° SSE 01:03:59 90° NE 01:08:44 10° NNW
Okean 1-7 3.0 01:03:32 59° SE 01:04:08 69° E 01:08:25 10° NNE
Cosmos 44 Rocket 3.5 01:00:10 10° NW 01:04:42 49° WSW 01:04:42 49° WSW
Okean 2 3.4 01:04:38 59° SE 01:04:59 63° E 01:08:56 10° NNE
Cosmos 468 Rocket 4.0 01:00:24 10° NNW 01:05:44 84° ENE 01:07:58 36° SSE
SJ 16-02 4.1 01:07:21 10° E 01:07:49 10° E 01:08:16 10° E
NOSS 3-4 (A) 3.8 01:01:01 10° NW 01:08:00 74° WSW 01:15:17 13° SSE
NOSS 3-4 (C) 3.8 01:01:04 10° NW 01:08:03 74° WSW 01:15:32 12° SSE
Cosmos 1908 Rocket 4.0 01:05:42 10° N 01:10:06 59° E 01:11:38 37° SE
Cosmos 1400 Rocket 3.8 01:10:06 33° WNW 01:10:08 33° WNW 01:13:48 10° N
Cosmos 381 Rocket 4.4 01:03:48 10° NNW 01:10:13 75° WSW 01:13:11 34° S
IDEFIX/ARIANE 42P 2.7 01:08:55 10° NNE 01:14:10 67° ESE 01:16:06 39° S
BREEZE-M DEB (TANK) 3.7 01:12:17 16° WNW 01:15:07 62° SSW 01:26:54 10° SE
SL-8 R/B 4.0 01:15:14 10° WNW 01:19:59 66° NNE 01:24:45 10° E
Cosmos 1763 Rocket 3.8 01:15:11 10° NNW 01:20:18 49° WSW 01:21:16 44° SW
SL-08 R/B 4.5 01:18:20 39° SSW 01:20:45 72° W 01:26:57 10° N
Cosmos 1745 Rocket 4.1 01:17:54 32° S 01:20:58 73° E 01:27:13 10° NNE
CZ-2C R/B 4.1 01:15:45 10° NNE 01:21:20 45° E 01:24:41 22° SSE
ATLAS CENTAUR R/B 4.2 01:08:46 10° NW 01:21:31 58° WSW 01:28:40 15° SSE
ALOS 4.3 01:19:54 10° NE 01:23:21 20° E 01:26:39 11° SE
Cosmos 1733 Rocket 4.0 01:20:14 10° NNW 01:23:56 30° W 01:23:56 30° W
Cosmos 2278 4.3 01:18:35 10° NNW 01:24:14 57° ENE 01:29:50 10° SE
CZ-2D R/B 2.5 01:19:12 10° NNE 01:24:39 62° ESE 01:27:12 31° S
USA 234 3.9 01:26:06 31° SW 01:26:06 31° SW 01:31:48 10° WNW
Okean 3 4.0 01:26:35 38° W 01:26:56 39° WNW 01:30:48 10° N
Cosmos 1356 Rocket 4.2 01:30:15 34° W 01:30:39 34° WNW 01:34:25 10° N
Cosmos 1346 Rocket 3.4 01:27:28 10° NNW 01:30:55 38° W 01:30:55 38° W
Cosmos 2333 Rocket 4.5 01:27:07 10° N 01:31:48 25° NE 01:36:29 10° ESE
COBE Rocket 3.8 01:27:01 10° N 01:31:54 81° W 01:33:40 40° SSW
Cosmos 1242 Rocket 3.7 01:33:00 24° ESE 01:33:28 25° E 01:35:55 10° NE
FENGYUN 3A 4.3 01:32:55 10° NNE 01:38:09 50° E 01:41:29 21° SSE
Meteor 1-28 Rocket 4.3 01:40:41 15° SE 01:43:20 40° ENE 01:46:43 10° N
Cosmos 1953 2.4 01:40:54 10° NNW 01:44:43 52° W 01:45:20 47° SW
Cosmos 2322 Rocket 3.5 01:40:21 10° NNW 01:45:42 41° ENE 01:51:02 10° SE
Nadezhda 1 Rocket 4.0 01:40:14 10° NNW 01:46:36 69° W 01:50:30 25° S
Cosmos 540 Rocket 4.0 01:42:53 10° NW 01:47:39 38° WSW 01:48:53 33° SW
Cosmos 1703 Rocket 3.7 01:47:02 40° SW 01:48:24 59° W 01:52:48 10° N
CZ-2C R/B 2.4 01:45:43 24° S 01:48:51 78° WSW 01:54:03 10° NNW
Resurs 1-4 Rocket 2.0 01:43:36 10° NNE 01:48:53 79° WNW 01:51:28 31° SSW
EXPRESS MD2 3.2 01:49:52 42° SSE 01:50:02 42° SE 01:53:57 10° ENE
COSMOS 2406 4.0 01:54:13 24° WSW 01:57:12 42° WNW 02:02:41 10° NNE
Cosmos 1850 Rocket 4.0 01:55:19 28° SSW 01:58:12 82° ESE 02:03:30 10° NNE
DELTA 2 R/B (1) 3.7 01:56:34 27° WSW 01:59:24 53° S 02:04:47 10° E
Cosmos 1980 Rocket 3.3 01:56:49 10° NW 02:01:20 24° WSW 02:02:15 23° WSW
Cosmos 1741 Rocket 4.0 01:58:29 27° SSW 02:01:23 83° ESE 02:06:40 10° NNE
NPP 4.1 01:59:36 10° N 02:04:45 47° WNW 02:07:34 25° SW
MSX 4.1 01:59:11 10° N 02:04:46 56° WNW 02:08:03 25° SW
SL-16 R/B 2.6 02:00:14 10° SSE 02:06:29 82° ENE 02:12:47 10° NNW
SL-24 R/B 4.5 02:05:26 14° S 02:09:49 81° E 02:14:40 10° N
Cosmos 1455 3.0 02:08:44 10° NNW 02:11:42 26° W 02:11:55 26° W
Cosmos 1300 Rocket 3.4 02:07:30 10° NNW 02:11:50 71° W 02:14:43 20° S
Cosmos 1315 Rocket 3.7 02:11:23 27° WSW 02:12:34 32° WNW 02:16:07 10° N
Meteor 1-4 Rocket 3.7 02:13:31 20° WNW 02:13:41 20° WNW 02:15:59 10° NNW
Cosmos 2098 Rocket 4.0 02:10:59 10° N 02:15:54 65° E 02:21:47 10° SSE
Genesis I 4.0 02:16:09 20° S 02:17:59 36° ESE 02:21:16 10° NE
Lacrosse 5 rocket 1.8 02:15:45 10° NW 02:19:46 59° NE 02:23:36 10° ESE
Cosmos 2181 Rocket 4.2 02:15:05 10° N 02:21:30 76° E 02:27:46 10° SSE
SAR-Lupe-1 4.2 02:18:20 10° NNE 02:21:55 72° ESE 02:24:17 20° S
Cosmos 1709 Rocket 4.2 02:19:07 20° SSW 02:23:26 57° WNW 02:29:42 10° N
BREEZE-M DEB (TANK) 3.3 02:21:03 10° WNW 02:25:11 35° N 02:27:20 10° ENE
Timation 1 Rocket 4.3 02:22:08 20° SSW 02:26:28 87° WNW 02:32:27 10° NNE
Cosmos 968 Rocket 3.4 02:24:00 20° SSW 02:27:35 83° WNW 02:32:44 10° NNE
SL-16 R/B 2.2 02:22:27 10° NNW 02:28:03 62° WSW 02:33:38 10° S
RESURS DK-1 4.2 02:25:28 10° N 02:29:12 34° NE 02:32:55 10° ESE
Cosmos 1378 Rocket 4.4 02:25:40 10° SSE 02:29:46 46° E 02:33:53 10° NNE
CZ-2C R/B 4.0 02:25:41 10° NE 02:29:54 30° E 02:33:58 10° SSE
Cosmos 841 Rocket 4.2 02:29:13 10° NW 02:33:55 34° WSW 02:37:46 14° SSW
Cosmos 2082 Rocket 4.0 02:32:38 10° W 02:36:47 20° NW 02:40:57 10° N
Meteor 1-24 Rocket 3.9 02:31:03 11° S 02:36:57 87° E 02:43:01 10° N
Cosmos 1892 4.1 02:37:44 10° SSE 02:40:55 33° E 02:44:07 10° NNE
Cosmos 1408 2.9 02:39:55 22° SW 02:41:13 33° WNW 02:43:59 10° N
ADEOS II 2.7 02:38:31 10° N 02:43:26 41° WNW 02:47:23 15° SW
Geosat 3.9 02:40:22 10° SSE 02:45:23 83° WSW 02:50:26 10° NNW
SJ 16-02 1.3 02:42:02 16° SSW 02:45:28 75° WNW 02:49:49 10° NNE
Cosmos 2219 Rocket 3.2 02:42:02 10° NNW 02:47:32 50° ENE 02:53:01 10° SE
IRAS Rocket 4.4 02:44:34 10° N 02:50:01 62° WNW 02:55:04 12° SSW
OAO 3 Rocket 4.3 02:49:22 15° SW 02:52:27 28° S 02:56:34 10° ESE
IDEFIX/ARIANE 42P 4.3 02:49:38 10° NNW 02:53:08 18° WNW 02:56:39 10° WSW
Cosmos 1825 3.1 02:50:44 10° SSE 02:53:58 41° E 02:57:13 10° NNE
Cosmos 2360 Rocket 2.2 02:48:42 10° NNW 02:54:24 78° WSW 03:00:03 10° SSE
Cosmos 405 Rocket 3.3 02:52:18 10° N 02:55:48 53° ENE 02:59:21 10° SSE
Cosmos 1814 Rocket 4.0 02:51:14 10° NNW 02:56:23 63° WSW 03:01:33 10° S
SL-27 R/B 2.1 02:55:22 16° SW 02:57:23 52° WNW 03:00:10 10° N
ALOS 2.8 02:56:22 10° N 03:00:45 43° WNW 03:04:58 11° SW
CZ-2C R/B 4.4 02:55:55 10° N 03:00:53 30° WNW 03:05:42 11° WSW
SL-8 R/B 4.0 02:57:48 10° WNW 03:02:21 45° SW 03:06:54 10° SE
CZ-2D R/B 3.7 03:00:09 10° NNW 03:04:10 21° WNW 03:08:08 10° WSW
Meteor 2-5 Rocket 4.0 02:59:14 10° SSW 03:04:59 57° WNW 03:10:51 10° N
Cosmos 1242 Rocket 4.3 03:04:39 10° W 03:05:52 12° WNW 03:07:06 10° NW
Cosmos 1703 4.1 03:04:00 12° SW 03:07:00 31° WNW 03:10:23 10° NNW
Cosmos 2221 Rocket 3.6 03:02:35 10° S 03:07:08 86° W 03:11:42 10° N
CZ-4 R/B 3.8 03:03:21 10° NNE 03:08:03 81° WNW 03:12:46 10° SSW
Sich 1 Rocket 3.6 03:09:16 10° NNW 03:13:46 67° W 03:18:11 10° S
Cosmos 1295 Rocket 4.5 03:08:38 10° SSW 03:14:46 75° W 03:20:53 10° N
Cosmos 2333 Rocket 2.3 03:10:51 10° NNW 03:16:28 59° WSW 03:22:05 10° S
DMSP B5D2-2 4.3 03:12:34 10° SSE 03:17:47 79° ENE 03:23:03 10° N
ASTEX 1 3.5 03:13:30 10° S 03:18:26 83° E 03:23:23 10° N
IRS-1D 3.9 03:13:43 10° NNE 03:19:05 74° ESE 03:24:23 10° S
YAOGAN 6 2.4 03:16:09 10° NNE 03:19:28 84° E 03:22:46 10° S
Cosmos 2151 Rocket 3.8 03:16:12 10° NNW 03:20:34 52° W 03:24:53 10° S
Cosmos 2074 Rocket 4.2 03:17:32 10° SSW 03:23:39 56° WNW 03:29:45 10° N
Resurs 1-4 Rocket 4.2 03:25:47 10° NNW 03:27:48 12° NW 03:29:47 10° WNW
Cosmos 2322 Rocket 2.9 03:24:39 10° NW 03:29:34 31° WSW 03:34:29 10° SSW
Envisat 3.4 03:27:19 10° N 03:32:13 50° WNW 03:37:05 10° SW
Cosmos 839 Rocket 4.2 03:26:38 10° NW 03:33:31 56° WSW 03:39:31 10° SSE
